User: anonymous   Login
Location: Abraham Lincoln Continuation High School
(33.9711°N, 117.3662°W)
Time: 19:15:35
(UTC+00:00)
Language:

MOS 1 - Orbit

View from above orbital plane
View from above orbital plane
View from above satellite
View from above satellite

Ground track
Ground track

The orbit data is extracted from the following two-line orbital elements,

1 17527U 87018A   20330.89147899 +.00000036 +00000-0 +52496-4 0  9998
2 17527 099.1364 014.1748 0009151 067.8910 104.9258 14.02566334725544
Epoch (UTC): 25 November 2020 21:23:43
Eccentricity: 0.0009151
inclination: 99.1364°
perigee height: 878 km
apogee height: 891 km
right ascension of ascending node: 14.1748°
argument of perigee: 67.8910°
revolutions per day: 14.02566334
mean anomaly at epoch: 104.9258°
orbit number at epoch: 72554

The dashed part of the orbit path shows where the satellite is in the earth's shadow,  

DLR